N234RW KABI-KLAW

Flight info

Callsign N234RW
Flight time N/A
Altitude 15000
Route AJAHO V77 SPS
Aircraft B60T/L-SDFGRY/C

Departure

Time 2026-04-15 19:36
Airport Abilene Regional Airport (KABI)

Arrival

Time N/A
Airport Lawton Fort Sill Regional Airport (KLAW)
Time Latitude Longitude Altitude Speed Heading
2026-04-15 19:23 32.41507 -99.68210 1793 ft 0 kts
2026-04-15 19:31 32.41510 -99.68210 1793 ft 2 kts 359°
2026-04-15 19:31 32.41524 -99.68226 1793 ft 0 kts 290°
2026-04-15 19:31 32.41529 -99.68249 1792 ft 3 kts 275°
2026-04-15 19:31 32.41530 -99.68267 1794 ft 7 kts 274°
2026-04-15 19:32 32.41532 -99.68332 1795 ft 9 kts 283°
2026-04-15 19:32 32.41612 -99.68358 1796 ft 19 kts 359°
2026-04-15 19:32 32.41879 -99.68362 1799 ft 50 kts
2026-04-15 19:32 32.42248 -99.68361 1795 ft 55 kts 360°
2026-04-15 19:33 32.42601 -99.68358 1797 ft 34 kts 360°
2026-04-15 19:33 32.42786 -99.68386 1797 ft 19 kts 316°
2026-04-15 19:33 32.42800 -99.68407 1800 ft 0 kts 276°
2026-04-15 19:33 32.42800 -99.68410 1800 ft 2 kts 269°
2026-04-15 19:34 32.42799 -99.68434 1801 ft 13 kts 270°
2026-04-15 19:34 32.42783 -99.68494 1801 ft 10 kts 172°
2026-04-15 19:34 32.42770 -99.68492 1801 ft 0 kts 180°
2026-04-15 19:35 32.42768 -99.68492 1801 ft 6 kts 181°
2026-04-15 19:35 32.42454 -99.68492 1796 ft 81 kts 180°
2026-04-15 19:35 32.41766 -99.68503 2037 ft 116 kts 187°
2026-04-15 19:35 32.40806 -99.68578 2327 ft 155 kts 187°
2026-04-15 19:36 32.39661 -99.68578 2798 ft 173 kts 178°
2026-04-15 19:36 32.38552 -99.67916 3260 ft 192 kts 137°
2026-04-15 19:36 32.38038 -99.66465 3713 ft 197 kts 95°
2026-04-15 19:36 32.38392 -99.64906 4124 ft 200 kts 57°
2026-04-15 19:37 32.39426 -99.63874 4491 ft 198 kts 18°
2026-04-15 19:37 32.40800 -99.63479 4566 ft 208 kts
2026-04-15 19:37 32.42229 -99.63200 4639 ft 213 kts
2026-04-15 19:37 32.43695 -99.62983 4820 ft 210 kts 359°
2026-04-15 19:38 32.45136 -99.62856 5064 ft 207 kts
2026-04-15 19:38 32.46540 -99.62477 5313 ft 207 kts 14°
2026-04-15 19:38 32.47861 -99.61790 5558 ft 207 kts 26°
2026-04-15 19:38 32.49105 -99.60930 5805 ft 207 kts 30°
2026-04-15 19:39 32.50297 -99.59971 6049 ft 208 kts 31°
2026-04-15 19:39 32.51476 -99.58979 6290 ft 207 kts 33°
2026-04-15 19:39 32.52641 -99.57971 6529 ft 207 kts 33°
2026-04-15 19:39 32.53805 -99.56959 6755 ft 208 kts 33°
2026-04-15 19:40 32.54959 -99.55929 6980 ft 207 kts 33°
2026-04-15 19:40 32.56117 -99.54902 7225 ft 209 kts 33°
2026-04-15 19:40 32.57281 -99.53865 7447 ft 209 kts 34°
2026-04-15 19:40 32.58427 -99.52831 7684 ft 211 kts 34°
2026-04-15 19:41 32.59585 -99.51767 7913 ft 210 kts 34°
2026-04-15 19:41 32.60759 -99.50730 8147 ft 211 kts 34°
2026-04-15 19:41 32.61940 -99.49694 8388 ft 210 kts 34°
2026-04-15 19:41 32.63115 -99.48655 8632 ft 211 kts 34°
2026-04-15 19:42 32.64289 -99.47614 8878 ft 211 kts 34°
2026-04-15 19:42 32.65465 -99.46568 9128 ft 211 kts 34°
2026-04-15 19:42 32.66649 -99.45519 9373 ft 212 kts 34°
2026-04-15 19:42 32.67825 -99.44474 9625 ft 214 kts 35°
2026-04-15 19:43 32.69018 -99.43409 9867 ft 214 kts 35°
2026-04-15 19:43 32.70215 -99.42343 10093 ft 215 kts 35°
2026-04-15 19:43 32.71416 -99.41272 10327 ft 216 kts 35°
2026-04-15 19:43 32.72619 -99.40199 10563 ft 217 kts 35°
2026-04-15 19:44 32.73827 -99.39122 10805 ft 217 kts 35°
2026-04-15 19:44 32.75027 -99.38051 11041 ft 218 kts 34°
2026-04-15 19:44 32.76243 -99.36967 11281 ft 219 kts 34°
2026-04-15 19:44 32.77480 -99.35862 11529 ft 225 kts 34°
2026-04-15 19:45 32.78744 -99.34735 11775 ft 228 kts 34°
2026-04-15 19:45 32.80022 -99.33592 12023 ft 231 kts 34°
2026-04-15 19:45 32.81315 -99.32433 12282 ft 234 kts 34°
2026-04-15 19:45 32.82623 -99.31260 12539 ft 236 kts 35°
2026-04-15 19:46 32.83935 -99.30078 12798 ft 238 kts 34°
2026-04-15 19:46 32.85243 -99.28902 13047 ft 239 kts 34°
2026-04-15 19:46 32.86578 -99.27703 13305 ft 241 kts 34°
2026-04-15 19:46 32.87918 -99.26500 13566 ft 242 kts 34°
2026-04-15 19:47 32.89265 -99.25291 13813 ft 243 kts 34°
2026-04-15 19:47 32.90620 -99.24077 14047 ft 244 kts 34°
2026-04-15 19:47 32.91980 -99.22858 14288 ft 245 kts 34°
2026-04-15 19:47 32.93347 -99.21631 14517 ft 246 kts 34°
2026-04-15 19:48 32.94720 -99.20400 14758 ft 248 kts 34°
2026-04-15 19:48 32.96105 -99.19158 14943 ft 252 kts 34°
2026-04-15 19:48 32.97534 -99.17878 14971 ft 261 kts 34°
2026-04-15 19:48 32.99004 -99.16557 14983 ft 268 kts 34°
2026-04-15 19:49 33.00503 -99.15207 14986 ft 272 kts 34°
2026-04-15 19:49 33.02020 -99.13838 14987 ft 274 kts 34°
2026-04-15 19:49 33.03547 -99.12460 14989 ft 276 kts 34°
2026-04-15 19:49 33.05080 -99.11076 14985 ft 277 kts 34°
2026-04-15 19:50 33.06597 -99.09706 14984 ft 277 kts 34°
2026-04-15 19:50 33.08137 -99.08317 14981 ft 277 kts 34°
2026-04-15 19:50 33.09671 -99.06933 14987 ft 276 kts 34°
2026-04-15 19:50 33.11256 -99.05652 14989 ft 274 kts 26°
2026-04-15 19:51 33.12372 -99.04945 14993 ft 272 kts 20°
2026-04-15 19:51 33.14109 -99.04050 14990 ft 272 kts 18°